AirNav   Everest Fuels
 
 1670 users online  

II26 Ashby Airport
Remington, Indiana, USA

GOING TO REMINGTON?


FAA INFORMATION EFFECTIVE 10 SEPTEMBER 2020

Location

FAA Identifier: II26
Lat/Long: 40-42-14.1400N 087-11-16.0650W
40-42.235667N 087-11.267750W
40.7039278,-87.1877958
(estimated)
Elevation: 750 ft. / 229 m (estimated)
Variation: 01W (1985)
From city: 4 miles SW of REMINGTON, IN
Time zone: UTC -4 (UTC -5 during Standard Time)
Zip code: 47977

Airport Operations

Airport use: Private use. Permission required prior to landing
Activation date: 02/1982
Control tower: no
ARTCC: CHICAGO CENTER
FSS: TERRE HAUTE FLIGHT SERVICE STATION
Attendance: UNATNDD
Wind indicator: yes
Segmented circle: no

Airport Communications

WX AWOS-3P at RZL (15 nm N): 119.175 (219-866-7167)
WX AWOS-3P at MCX (19 nm E): 124.05 (574-583-0531)

Nearby radio navigation aids

VOR radial/distance  VOR name  Freq  Var
BVTr328/10.4BOILER VORTAC115.1001E
DNVr032/29.8DANVILLE VORTAC111.0002E

Airport Services

Runway Information

Runway 18/36

Dimensions: 2200 x 60 ft. / 671 x 18 m
Surface: turf
RUNWAY 18  RUNWAY 36
Traffic pattern: leftleft

Airport Ownership and Management from official FAA records

Ownership: Privately-owned
Owner: B. RICHARD ASHBY
11697W 600S
WOLCOTT, IN 47995
Phone 219-279-2839
Manager: B. RICHARD ASHBY
11697W 600S
WOLCOTT, IN 47995
Phone 219-279-2839

Airport Operational Statistics

Aircraft based on the field: 1
Single engine airplanes: 1
    

Additional Remarks

FOR CD CTC CHICAGO ARTCC AT 630-906-8921.

Instrument Procedures

There are no published instrument procedures at II26.

Some nearby airports with instrument procedures:

50I - Kentland Municipal Airport (11 nm W)
KRZL - Jasper County Airport (15 nm N)
KMCX - White County Airport (19 nm E)
KLAF - Purdue University Airport (21 nm SE)
KRWN - Arens Field Airport (35 nm NE)
 
Loc | Ops | Rwys | IFR | FBO | Links
Com | Nav | Svcs | Stats | Notes
Area around II26 (Ashby Airport)
 
Road maps at: MapQuest Bing Google
 
Aerial photo
No photo
 
Sectional chart

 
Airport distance calculator
Flying to Ashby Airport? Find the distance to fly.

From to II26

Sunrise and sunset
Times for 29-Sep-2020
 Local
(UTC-4)
 Zulu
(UTC)
Morning civil twilight07:1811:18
Sunrise07:4511:45
Sunset19:3223:32
Evening civil twilight20:0024:00

Current date and time
Zulu (UTC)  29-Sep-2020 20:54:06
Local (UTC-4)  29-Sep-2020 16:54:06
 
METAR
KRZL 
15nm N 
292035Z AUTO 00000KT 10SM SCT039 SCT047 OVC065 15/06 A2984 RMK AO2 PWINO
KMCX 
19nm E 
292035Z AUTO 27006KT 10SM SCT045 SCT060 OVC075 15/05 A2984 RMK AO2 T01530052
KLAF 
20nm SE 
291954Z 26009KT 10SM OVC070 17/06 A2986 RMK AO2 SLP111 T01670061
TAF
KLAF 
20nm SE 
291720Z 2918/3018 26008KT P6SM SCT030 FM300400 24005KT P6SM SCT120 FM301000 21008KT P6SM FEW130 FM301400 24011KT P6SM FEW160 FM301600 25015G27KT P6SM SCT100
NOTAMs
Click for the latest NOTAMs
NOTAMs are issued by the DoD/FAA and will open in a separate window not controlled by AirNav.

 

 
 

Would you like to see your business listed on this page?

 If your business provides an interesting product or service to pilots, flight crews, aircraft, or users of the Ashby Airport, you should consider listing it here.  To start the listing process, click on the button below
 
Add a business
 

Other Pages about Ashby Airport

Update a link
 
Copyright © AirNav, LLC. All rights reserved. Privacy Policy  Contact